Date,TemperatureHighF,TemperatureAvgF,TemperatureLowF,DewpointHighF,DewpointAvgF,DewpointLowF,HumidityHigh,HumidityAvg,HumidityLow,PressureMaxIn,PressureMinIn,WindSpeedMaxMPH,WindSpeedAvgMPH,GustSpeedMaxMPH,PrecipitationSumIn
2013-1-1,45,42,38,43,36,28,97,81,57,30.10,29.95,5,1,8,0.21
2013-1-2,45,41,38,42,35,30,98,79,61,30.18,29.94,4,2,11,0.24
2013-1-3,42,36,27,36,32,22,94,85,75,30.28,30.16,4,1,7,0.00
2013-1-4,48,35,24,24,21,17,86,60,29,30.33,30.21,6,2,13,0.00
2013-1-5,50,38,27,28,22,19,75,54,30,30.38,30.23,5,2,9,0.00
2013-1-6,54,41,32,37,32,27,91,71,49,30.23,30.05,6,1,11,0.00
2013-1-7,49,39,28,30,27,24,85,63,43,30.44,30.21,5,2,11,0.00
2013-1-8,52,36,23,37,30,21,92,78,55,30.47,30.37,6,1,10,0.00
2013-1-9,58,48,38,49,43,35,94,83,72,30.47,30.38,6,1,8,0.00
2013-1-10,59,52,45,49,40,33,94,67,38,30.55,30.44,4,1,7,0.00
2013-1-11,49,43,40,43,41,35,97,93,69,30.44,30.19,6,2,11,0.22
2013-1-12,67,52,44,60,51,43,99,95,77,30.19,30.13,4,1,6,0.02
2013-1-13,69,58,51,62,56,50,99,92,72,30.16,30.06,7,2,14,0.00
2013-1-14,60,57,50,60,56,49,99,98,97,30.21,30.09,4,1,7,2.20
2013-1-15,50,43,39,49,42,38,98,97,95,30.24,30.11,8,4,13,2.95
2013-1-16,48,43,39,47,42,38,99,98,95,30.11,29.99,4,1,6,1.20
2013-1-17,48,41,32,48,40,31,99,97,93,30.19,29.96,8,2,17,1.86
2013-1-18,44,36,27,34,25,21,97,67,41,30.53,30.18,6,2,16,0.72
2013-1-19,51,35,23,31,27,22,95,75,45,30.49,30.14,7,2,14,0.01
2013-1-20,58,43,28,36,29,25,91,60,31,30.15,30.04,8,3,16,0.01
2013-1-21,54,39,27,33,24,9,93,60,32,30.09,29.93,14,3,23,0.00
2013-1-22,35,29,21,9,1,-4,53,31,19,30.26,30.01,9,3,19,0.00
2013-1-23,43,28,19,21,13,5,78,53,37,30.33,30.02,10,3,19,0.00
2013-1-24,32,27,21,20,7,3,79,44,29,30.49,30.00,6,2,18,0.00
2013-1-25,21,20,20,11,9,5,67,61,50,30.49,30.40,4,1,7,0.00
2013-1-26,38,34,31,31,27,24,78,75,71,30.36,30.23,4,1,8,0.00
2013-1-27,39,31,22,28,24,19,89,75,62,30.57,30.36,7,1,10,0.01
2013-1-28,50,38,32,42,34,27,95,86,71,30.47,30.24,7,2,11,0.04
2013-1-29,68,50,34,56,44,33,97,82,54,30.24,30.06,7,2,12,0.02
2013-1-30,67,62,51,61,58,49,97,90,80,30.06,29.42,14,6,26,2.11
2013-1-31,51,38,31,50,24,19,96,58,45,29.99,29.47,17,5,30,2.04
2013-2-1,35,29,22,28,12,3,83,51,32,30.36,29.88,11,4,21,0.01
2013-2-2,38,28,16,27,15,10,86,60,38,30.36,30.03,9,2,16,0.00
2013-2-3,45,38,30,29,25,21,89,61,46,30.03,29.86,14,5,27,0.00
2013-2-4,45,34,26,26,22,17,76,60,46,30.14,29.98,5,2,9,0.00
2013-2-5,56,40,29,37,30,25,87,69,44,29.99,29.91,8,2,18,0.00
2013-2-6,58,44,32,34,28,22,87,57,28,30.29,29.99,6,2,12,0.00
2013-2-7,41,37,33,36,31,25,95,80,55,30.35,30.07,7,2,13,0.39
2013-2-8,57,43,36,45,35,25,96,75,37,30.11,29.87,9,3,22,0.42
2013-2-9,55,41,30,26,20,13,73,45,21,30.36,30.09,8,3,22,0.01
2013-2-10,51,38,26,37,25,21,93,64,33,30.47,30.22,8,2,15,0.12
2013-2-11,53,44,38,51,42,36,97,92,68,30.21,29.95,7,1,11,0.20
2013-2-12,57,49,42,38,28,23,77,45,27,30.11,29.96,6,2,13,0.02
2013-2-13,45,42,39,43,39,31,96,89,72,29.97,29.66,7,2,11,0.19
2013-2-14,53,42,32,32,29,25,88,63,40,30.06,29.86,7,2,13,0.01
2013-2-15,58,42,26,39,31,24,94,69,36,30.10,29.94,10,3,17,0.05
2013-2-16,39,35,28,30,22,12,78,60,43,30.01,29.86,6,2,13,0.05
2013-2-17,37,28,22,16,8,4,73,45,25,30.24,29.97,11,4,22,0.00
2013-2-18,52,35,18,26,19,11,82,55,32,30.38,30.19,11,2,15,0.00
2013-2-19,52,41,34,42,28,14,94,64,29,30.19,29.86,14,4,31,0.03
2013-2-20,51,40,31,16,10,2,44,31,14,30.17,30.02,9,3,19,0.03
2013-2-21,55,42,28,22,15,10,55,34,19,30.27,30.11,6,2,14,0.00
2013-2-22,44,34,32,33,31,21,96,91,39,30.33,30.14,4,2,7,0.20
2013-2-23,47,39,33,42,37,32,97,94,84,30.16,29.85,3,1,5,0.24
2013-2-24,60,46,33,39,29,20,98,59,24,30.07,29.84,6,2,14,0.01
2013-2-25,41,36,31,26,24,22,75,63,51,30.23,30.07,7,2,11,0.00
2013-2-26,39,35,31,38,32,23,97,88,62,30.16,29.60,11,3,19,1.52
2013-2-27,55,44,35,40,36,33,98,76,47,29.80,29.65,12,4,17,0.02
2013-2-28,45,40,37,33,28,24,75,62,47,29.90,29.73,12,4,23,0.02
2013-3-1,43,38,35,29,26,25,73,62,49,29.94,29.87,6,2,14,0.00
2013-3-2,43,36,30,28,23,17,86,62,44,29.96,29.84,7,3,14,0.00
2013-3-3,38,32,28,19,16,13,64,53,42,30.01,29.91,7,4,16,0.00
2013-3-4,54,38,27,23,15,9,65,42,17,30.12,29.99,7,3,17,0.00
2013-3-5,46,39,33,39,30,20,96,72,42,30.07,29.62,5,1,8,0.93
2013-3-6,41,37,33,39,26,21,97,65,52,30.12,29.62,11,5,28,0.66
2013-3-7,45,38,32,28,26,22,71,62,48,30.29,30.12,8,4,19,0.00
2013-3-8,53,40,29,26,24,22,76,55,32,30.35,30.24,6,2,16,0.00
2013-3-9,62,45,29,33,28,23,82,56,30,30.37,30.26,5,1,10,0.00
2013-3-10,64,48,33,37,33,29,85,59,34,30.32,30.20,9,2,15,0.00
2013-3-11,60,50,39,52,38,24,92,64,40,30.23,29.90,8,2,15,0.13
2013-3-12,58,53,41,55,43,31,97,73,43,30.02,29.76,7,3,15,1.07
2013-3-13,47,40,32,33,24,15,83,54,38,30.19,30.01,16,4,30,0.01
2013-3-14,49,38,29,20,16,14,61,42,24,30.29,30.17,7,4,17,0.00
2013-3-15,62,44,27,38,28,18,79,54,36,30.21,29.91,11,3,20,0.00
2013-3-16,78,59,41,52,43,35,85,60,31,29.92,29.69,17,5,28,0.01
2013-3-17,59,48,37,50,44,35,92,85,71,30.19,29.88,12,5,18,0.01
2013-3-18,37,36,35,35,34,33,96,95,92,30.19,29.92,8,3,14,0.31
2013-3-19,60,46,33,43,26,8,98,57,21,30.09,29.84,15,4,23,0.25
2013-3-20,55,44,32,25,13,5,50,29,13,30.12,29.83,11,3,24,0.01
2013-3-21,40,34,28,28,13,9,65,44,32,29.98,29.80,9,4,22,0.00
2013-3-22,51,35,21,23,14,10,68,44,23,30.08,29.95,7,2,16,0.00
2013-3-23,55,44,35,34,24,13,75,48,30,30.06,29.92,4,1,9,0.00
2013-3-24,41,37,33,37,34,31,95,89,76,29.95,29.59,10,3,15,0.85
2013-3-25,42,36,32,34,27,21,96,73,48,29.84,29.56,14,5,26,0.04
2013-3-26,44,38,34,26,24,22,64,57,46,30.16,29.83,7,4,14,0.03
2013-3-27,44,38,32,27,22,19,71,54,39,30.27,30.16,8,3,21,0.00
2013-3-28,52,41,30,25,22,20,69,48,32,30.31,30.22,7,3,17,0.00
2013-3-29,60,43,26,30,24,17,85,52,19,30.36,30.19,8,2,13,0.00
2013-3-30,62,50,34,37,30,28,80,49,28,30.27,30.10,5,2,11,0.00
2013-3-31,63,51,44,54,45,-100,97,83,60,30.09,29.83,7,2,12,0.23
2013-4-1,63,54,39,50,41,33,95,66,41,30.02,29.87,11,3,23,0.02
2013-4-2,57,46,35,34,24,15,76,45,19,30.19,30.02,9,2,15,0.00
2013-4-3,56,46,32,23,18,15,64,35,22,30.32,30.15,8,2,14,0.00
2013-4-4,46,38,33,34,24,14,96,63,30,30.36,30.01,9,3,18,1.05
2013-4-5,62,48,35,44,36,32,97,70,35,30.08,29.94,6,2,14,1.02
2013-4-6,64,52,36,37,34,32,85,53,31,30.27,30.08,7,2,16,0.01
2013-4-7,68,55,42,47,40,33,74,59,42,30.27,30.11,11,4,21,0.00
2013-4-8,76,60,42,54,47,40,92,66,41,30.19,30.06,12,3,20,0.00
2013-4-9,82,67,48,56,51,45,92,61,36,30.22,30.09,10,3,20,0.00
2013-4-10,84,70,53,59,55,50,91,61,38,30.14,29.97,10,3,18,0.00
2013-4-11,79,69,57,63,57,53,94,67,42,30.00,29.77,16,4,29,0.27
2013-4-12,77,67,58,65,54,38,97,69,28,29.84,29.67,10,5,25,1.21
2013-4-13,75,60,43,42,36,26,77,44,18,30.06,29.84,10,3,18,0.01
2013-4-14,75,60,41,47,40,36,85,51,28,30.14,30.02,9,2,18,0.00
2013-4-15,63,56,53,56,53,48,96,92,59,30.25,30.06,8,2,13,0.56
2013-4-16,76,64,55,61,57,54,97,82,56,30.33,30.21,6,2,11,0.01
2013-4-17,76,66,57,61,58,54,95,78,55,30.27,30.16,7,2,11,0.00
2013-4-18,77,66,56,61,58,55,97,78,49,30.20,30.02,9,2,19,0.00
2013-4-19,69,64,52,65,60,43,95,86,67,30.01,29.73,10,5,19,0.87
2013-4-20,63,51,41,44,32,27,74,48,27,30.30,29.91,6,2,15,0.06
2013-4-21,59,48,36,37,33,28,83,57,41,30.51,30.30,10,4,17,0.00
2013-4-22,60,50,38,36,31,26,78,52,28,30.48,30.28,9,3,17,0.00
2013-4-23,68,56,45,50,43,33,82,64,48,30.32,30.12,6,2,10,0.00
2013-4-24,71,60,45,57,52,43,95,77,57,30.16,29.98,12,4,23,0.00
2013-4-25,69,56,42,54,35,26,81,49,21,30.33,30.07,6,2,13,0.00
2013-4-26,67,55,38,46,36,32,82,52,29,30.47,30.33,7,2,13,0.00
2013-4-27,62,56,51,54,49,43,94,77,59,30.39,30.29,3,1,7,0.03
2013-4-28,54,53,52,53,51,-100,97,96,94,30.29,30.07,6,1,11,0.89
2013-4-29,67,58,52,58,54,51,98,89,71,30.11,30.00,5,2,10,0.24
2013-4-30,71,62,55,59,56,54,97,81,60,30.24,30.05,8,3,13,0.03
2013-5-1,65,60,55,55,53,51,94,79,67,30.36,30.23,12,4,18,0.00
2013-5-2,61,57,54,54,52,47,89,81,75,30.37,30.29,9,4,16,0.00
2013-5-3,65,58,52,52,48,43,91,72,51,30.31,30.19,12,5,19,0.00
2013-5-4,62,52,47,49,44,41,88,73,54,30.22,30.09,13,7,22,0.00
2013-5-5,53,50,48,52,46,39,95,83,69,30.13,29.98,15,8,24,0.37
2013-5-6,63,56,53,59,54,51,96,93,81,29.99,29.85,11,6,23,0.99
2013-5-7,66,55,52,57,53,51,98,92,61,29.98,29.88,4,1,11,1.02
2013-5-8,64,55,51,60,54,50,98,96,85,30.06,29.95,3,1,10,0.23
2013-5-9,80,62,47,60,53,46,98,77,35,30.11,30.03,7,2,12,0.02
2013-5-10,80,65,51,62,55,-100,96,75,48,30.12,29.97,10,2,17,0.00
2013-5-11,74,66,60,63,60,58,95,82,60,29.99,29.84,7,2,13,0.05
2013-5-12,65,59,46,60,40,-100,95,55,28,30.09,29.87,7,2,20,0.04
2013-5-13,65,51,36,38,33,26,91,55,23,30.21,30.08,8,2,20,0.00
2013-5-14,70,54,35,46,40,33,93,61,38,30.28,30.08,8,3,19,0.00
2013-5-15,89,68,47,62,52,45,94,62,26,30.09,29.95,11,2,19,0.00
2013-5-16,81,64,58,61,36,-100,82,63,40,30.06,29.96,8,2,13,0.00
2013-5-17,82,67,54,64,52,-100,96,73,45,30.15,30.04,4,1,14,0.84
2013-5-18,69,64,59,66,62,58,98,94,87,30.20,30.12,5,1,8,0.87
2013-5-19,74,66,63,69,64,62,99,95,81,30.17,30.08,5,2,11,0.14
2013-5-20,78,69,65,69,66,64,99,91,64,30.16,30.06,5,1,8,0.48
2013-5-21,85,72,62,71,66,61,99,84,56,30.10,29.97,5,1,9,0.46
2013-5-22,81,68,63,70,65,62,98,89,60,30.06,29.94,11,2,21,0.26
2013-5-23,76,67,61,67,63,59,98,90,70,30.00,29.86,6,2,17,0.38
2013-5-24,67,61,50,60,46,34,96,62,31,30.24,29.91,6,2,20,0.16
2013-5-25,74,60,48,42,37,30,76,46,21,30.32,30.19,6,2,14,0.00
2013-5-26,74,62,53,55,48,39,88,61,42,30.32,30.19,5,1,10,0.00
2013-5-27,79,65,50,59,54,47,91,68,47,30.32,30.18,6,2,13,0.00
2013-5-28,82,70,56,66,61,54,95,74,50,30.27,30.17,7,2,16,0.00
2013-5-29,84,72,60,66,62,58,94,72,49,30.28,30.19,6,2,13,0.00
2013-5-30,83,71,56,66,62,55,96,75,50,30.31,30.22,6,2,13,0.00
2013-5-31,83,72,58,68,62,57,96,75,51,30.26,30.15,6,2,18,0.00
2013-6-1,84,73,62,68,63,60,95,73,49,30.16,30.05,8,3,20,0.00
2013-6-2,77,70,66,69,65,-100,98,85,73,30.08,29.96,8,2,13,0.42
2013-6-3,82,72,65,69,65,59,99,80,49,30.03,29.89,3,1,12,0.15
2013-6-4,77,68,62,65,61,59,95,80,58,30.16,30.02,5,1,11,0.00
2013-6-5,71,65,60,64,62,59,97,88,73,30.18,30.07,8,2,12,0.00
2013-6-6,73,67,63,71,66,62,99,96,88,30.07,29.84,4,1,8,4.20
2013-6-7,78,70,66,70,66,60,99,88,73,29.88,29.68,4,1,9,0.09
2013-6-8,81,71,62,68,63,60,97,78,56,30.14,29.87,4,1,8,0.22
2013-6-9,84,73,64,70,67,63,98,84,56,30.21,30.10,8,1,19,0.68
2013-6-10,79,71,67,72,68,65,99,91,75,30.14,29.91,8,3,19,0.99
2013-6-11,84,73,63,66,64,61,98,75,50,30.03,29.95,6,2,12,0.03
2013-6-12,93,76,62,75,68,61,97,78,47,30.04,29.93,5,1,9,0.03
2013-6-13,91,76,69,73,67,59,96,77,44,29.94,29.70,12,2,25,0.06
2013-6-14,79,70,58,59,55,51,90,63,42,30.09,29.83,6,2,12,0.02
2013-6-15,82,70,55,64,59,53,95,71,48,30.19,30.08,5,1,12,0.00
2013-6-16,83,73,63,69,64,61,94,76,57,30.16,30.05,8,2,16,0.00
2013-6-17,80,73,68,71,68,65,96,84,69,30.08,29.99,4,1,10,0.02
2013-6-18,80,71,67,71,68,65,97,91,74,30.01,29.85,5,1,9,0.22
2013-6-19,81,69,61,68,64,60,97,84,55,30.18,29.96,7,1,10,0.13
2013-6-20,77,69,65,66,65,64,98,89,68,30.30,30.18,7,2,13,0.14
2013-6-22,84,79,70,68,65,61,90,64,48,30.28,30.17,7,2,11,0.00
2013-6-23,86,76,67,70,67,63,97,76,48,30.27,30.16,5,1,10,0.00
2013-6-24,83,72,65,72,68,64,97,87,65,30.26,30.14,4,1,9,0.00
2013-6-25,84,72,66,72,69,65,98,91,66,30.18,30.06,3,1,6,0.54
2013-6-26,85,71,65,72,68,64,99,92,66,30.08,29.96,4,1,8,0.31
2013-6-27,84,73,67,74,69,66,98,88,64,30.00,29.77,6,2,12,0.02
2013-6-28,88,74,66,73,69,65,97,86,49,29.80,29.64,8,1,16,0.64
2013-6-29,84,75,64,70,67,63,98,78,56,29.77,29.66,8,2,13,0.64
2013-6-30,85,74,67,73,69,66,96,84,56,29.90,29.75,6,2,11,0.02
2013-7-1,80,71,66,71,68,65,98,90,68,29.99,29.88,4,1,9,0.06
2013-7-2,74,69,67,72,68,66,99,96,92,30.21,30.02,5,2,11,3.61
2013-7-3,77,72,69,74,71,69,99,96,85,30.27,30.17,4,1,10,1.36
2013-7-4,84,74,68,75,70,67,99,90,66,30.31,30.21,7,2,16,1.73
2013-7-5,81,72,69,74,70,68,99,94,74,30.30,30.24,7,2,13,0.28
2013-7-6,83,74,69,73,70,68,99,90,69,30.29,30.18,5,2,12,0.25
2013-7-7,81,73,68,75,71,67,99,93,76,30.23,30.13,6,2,12,0.41
2013-7-8,85,73,67,74,69,67,99,88,60,30.24,30.15,5,1,8,0.23
2013-7-9,87,76,69,73,70,67,99,84,52,30.21,30.11,4,1,6,0.01
2013-7-10,84,72,68,75,66,-100,98,87,71,30.15,30.01,6,1,11,0.11
2013-7-11,81,72,69,74,70,68,99,95,77,30.02,29.93,5,1,8,0.09
2013-7-12,78,71,68,71,68,65,99,90,72,30.07,29.94,8,2,14,0.08
2013-7-13,76,71,66,72,68,64,96,90,80,30.20,30.09,6,2,13,0.06
2013-7-14,84,76,70,74,70,69,98,86,63,30.36,30.19,7,3,18,0.31
2013-7-15,87,74,68,73,69,67,98,86,58,30.40,30.32,3,0,7,0.02
2013-7-16,90,75,65,76,70,64,98,86,52,30.36,30.26,3,0,7,0.01
2013-7-17,89,76,71,76,72,69,95,87,60,30.32,30.20,6,1,11,0.16
2013-7-18,91,78,68,77,71,67,98,83,52,30.24,30.11,2,0,7,0.14
2013-7-19,86,77,70,75,73,69,98,89,68,30.16,30.04,6,1,11,0.00
2013-7-20,83,74,70,76,70,-100,97,88,68,30.07,29.98,6,2,13,0.30
2013-7-21,84,73,67,74,70,66,99,92,72,30.05,29.98,6,1,9,0.02
2013-7-22,82,72,70,74,70,69,99,95,71,30.03,29.88,5,1,10,0.47
2013-7-23,86,76,68,74,70,68,99,85,58,29.90,29.80,6,2,12,1.32
2013-7-24,87,77,66,72,69,65,98,78,54,29.90,29.81,3,1,9,0.00
2013-7-25,80,72,65,69,67,64,97,84,65,30.09,29.91,6,2,11,0.11
2013-7-26,81,72,66,71,66,62,93,83,66,30.16,30.07,3,1,9,0.07
2013-7-27,71,69,66,69,67,65,99,96,87,30.09,29.99,8,1,14,2.07
2013-7-28,84,72,66,72,68,66,99,89,61,30.06,29.97,6,1,11,0.06
2013-7-29,82,69,59,68,62,58,97,81,50,30.24,30.06,3,0,7,0.04
2013-7-30,78,70,61,69,63,58,95,81,58,30.29,30.20,3,0,7,0.00
2013-7-31,72,68,66,68,66,65,98,94,82,30.22,30.05,2,0,4,0.03
2013-8-1,86,74,67,73,69,66,99,86,53,30.04,29.93,5,1,11,0.01
2013-8-2,84,72,63,72,66,62,97,82,54,30.09,29.99,3,1,8,0.01
2013-8-3,86,75,65,72,68,64,97,79,53,30.08,29.98,7,1,11,0.00
2013-8-4,85,74,66,70,65,58,98,75,42,30.10,29.99,4,1,11,0.08
2013-8-5,80,70,61,70,64,59,94,82,66,30.15,30.03,4,1,10,0.07
2013-8-6,79,71,68,71,68,66,96,90,75,30.10,30.02,5,2,11,0.00
2013-8-7,76,71,69,73,70,68,98,96,88,30.14,30.08,6,1,10,0.11
2013-8-8,82,73,70,74,71,69,99,95,75,30.12,30.05,4,1,7,0.56
2013-8-9,87,75,70,76,72,70,99,93,67,30.11,30.03,7,1,12,0.01
2013-8-10,85,73,69,77,71,68,99,94,71,30.16,30.09,8,1,15,0.83
2013-8-11,87,75,66,76,71,66,100,89,63,30.18,30.08,6,1,10,0.30
2013-8-12,81,73,68,77,71,67,98,94,69,30.12,30.01,2,0,7,0.18
2013-8-13,83,71,67,75,67,-100,99,89,68,30.03,29.86,5,1,13,0.07
2013-8-14,77,66,61,68,54,-100,96,74,45,30.14,29.93,3,1,9,0.01
2013-8-15,72,55,55,60,36,-100,96,74,62,30.23,30.14,7,1,9,0.00
2013-8-16,73,60,53,61,52,-100,98,84,64,30.24,30.16,4,1,9,0.00
2013-8-21,80,72,65,72,69,65,99,92,76,30.28,30.17,4,1,7,0.00
2013-8-22,86,74,64,73,69,64,99,86,58,30.20,30.07,10,1,15,0.64
2013-8-23,82,71,63,73,68,62,100,89,71,30.16,30.01,8,2,15,0.01
2013-8-24,79,68,59,62,60,55,98,77,45,30.36,30.17,8,2,14,0.01
2013-8-25,79,65,55,64,56,-100,98,79,48,30.45,30.34,5,1,11,0.00
2013-8-26,84,68,55,68,61,54,98,82,47,30.39,30.16,5,1,8,0.00
2013-8-27,86,71,61,71,65,60,99,85,59,30.18,30.05,3,1,9,0.00
2013-9-1,80,69,67,74,66,-100,100,95,72,29.96,29.87,3,1,9,0.29
2013-9-2,87,74,65,75,70,65,100,88,59,29.96,29.86,3,1,7,0.01
2013-9-3,87,74,65,70,67,62,99,80,51,30.04,29.87,4,1,11,0.01
2013-9-4,83,70,57,66,62,56,97,78,50,30.16,30.04,4,1,8,0.01
2013-9-5,86,71,58,66,61,57,96,73,43,30.18,30.10,3,1,8,0.00
2013-9-6,77,68,58,63,60,55,97,77,57,30.27,30.15,6,1,11,0.00
2013-9-7,79,68,58,68,63,57,98,86,65,30.19,30.03,5,1,10,0.00
2013-9-8,86,70,60,71,62,-100,99,82,51,30.06,29.98,2,0,5,0.00
2013-9-9,84,73,64,72,68,63,98,86,60,30.21,30.06,7,1,14,0.00
2013-9-11,86,73,64,74,69,63,99,89,63,30.27,30.13,3,1,6,0.00
2013-9-12,87,73,64,74,68,63,99,87,57,30.13,29.89,4,1,9,0.00
2013-9-13,79,69,59,65,58,50,93,69,39,29.98,29.85,4,1,12,0.00
2013-9-14,74,61,49,57,51,47,94,72,46,30.17,29.99,5,1,10,0.00
2013-9-15,76,58,49,63,52,-100,97,85,58,30.27,30.16,4,1,10,0.00
2013-9-16,79,66,56,66,60,55,98,82,57,30.25,30.13,5,1,11,0.01
2013-9-17,69,60,52,58,55,51,96,82,64,30.38,30.26,6,1,13,0.01
2013-9-18,57,56,53,54,52,51,96,87,83,30.35,30.32,3,1,5,0.00
2013-9-19,70,63,57,66,61,56,98,92,78,30.24,30.13,4,1,9,0.00
2013-9-20,82,68,62,70,65,61,99,91,65,30.14,29.99,9,2,15,0.07
2013-9-21,70,66,61,69,65,61,99,98,92,30.01,29.75,6,1,12,0.66
2013-10-2,81,66,54,65,59,53,98,80,48,30.20,30.10,5,1,7,0.00
2013-10-3,82,68,57,65,61,56,98,81,53,30.18,30.11,4,1,8,0.00
2013-10-4,85,70,55,67,62,54,98,79,47,30.19,30.11,5,1,10,0.00
2013-10-5,85,71,59,66,63,58,98,78,50,30.18,30.08,5,1,9,0.00
2013-10-6,81,69,58,67,63,57,99,82,55,30.10,29.95,6,1,12,0.00
2013-10-7,70,64,53,68,60,49,99,86,65,30.08,29.85,7,1,12,1.09
2013-10-8,65,57,49,50,47,45,90,71,52,30.28,30.08,8,3,17,0.08
2013-10-9,69,55,44,49,45,37,96,73,31,30.29,30.18,8,2,15,0.00
2013-10-10,71,58,46,62,54,44,96,86,69,30.19,30.02,3,1,11,0.05
2013-10-18,68,57,47,57,50,44,97,78,52,30.09,29.94,4,1,8,0.01
2013-10-19,62,55,49,58,54,48,97,94,86,30.02,29.86,4,1,7,0.01
2013-10-20,64,50,40,48,38,-100,95,70,34,30.14,29.97,4,1,10,0.01
2013-10-21,67,50,36,51,44,35,97,81,57,30.19,30.02,8,1,12,0.01
2013-10-22,70,56,49,56,50,47,97,83,47,30.03,29.83,5,0,7,0.00
2013-10-23,61,51,39,53,40,30,97,68,38,30.05,29.75,9,3,21,0.00
2013-10-24,54,43,31,37,33,28,92,69,43,30.20,30.06,10,2,21,0.00
2013-10-25,48,41,30,37,30,27,93,66,46,30.40,30.19,5,2,12,0.00
2013-10-26,56,40,24,35,29,22,94,69,39,30.38,30.08,7,3,15,0.00
2013-10-27,69,52,36,46,39,-100,93,66,35,30.15,30.04,6,1,12,0.00
2013-10-28,63,52,42,54,46,-100,94,86,68,30.30,30.14,4,1,7,0.00
2013-10-29,71,59,49,55,52,48,97,78,50,30.37,30.27,5,1,11,0.00
2013-10-30,75,60,52,60,55,50,97,85,54,30.32,30.18,5,0,9,0.01
2013-11-12,56,39,30,39,27,16,84,63,43,30.47,30.06,6,2,15,0.00
2013-11-13,47,34,26,20,17,15,74,51,28,30.55,30.45,4,1,11,0.00
2013-11-14,58,37,20,26,20,17,88,57,23,30.47,30.32,5,1,11,0.00
2013-11-15,55,41,25,45,30,21,95,69,36,30.35,30.23,5,0,9,0.01
2013-11-16,55,50,45,53,46,-100,98,94,89,30.32,30.23,2,0,5,0.01
2013-11-17,57,55,52,57,54,51,99,98,97,30.25,29.92,5,1,9,0.00
2013-11-18,67,59,49,59,43,27,99,62,27,30.05,29.86,8,3,20,0.00
2013-12-4,56,52,48,53,50,47,98,96,89,30.11,29.99,3,1,6,0.00
2013-12-5,62,57,53,62,57,52,99,99,98,30.12,30.02,5,1,8,0.18
2013-12-6,73,67,59,65,63,58,100,87,72,30.05,29.96,12,6,24,0.42
2013-12-7,59,46,39,58,38,-100,98,77,64,30.46,30.03,8,2,16,0.29
2013-12-8,39,33,31,36,31,29,96,93,80,30.46,30.28,9,2,15,0.62
2013-12-9,43,37,31,42,36,30,98,97,95,30.27,30.07,4,1,7,0.26
2013-12-10,48,40,29,45,35,22,99,83,52,30.28,29.96,8,2,16,0.38